This is the latest recevied weather packets stored in our database for station/object K0VSC-1. If no packets are shown the sender has not sent any weather packets the latest 10 day(s).
| Time | Temp. | Humidity | Pressure | Rain* | Wind** | Luminosity | Snow |
|---|---|---|---|---|---|---|---|
| 1777847890 | 18.89° C | 29% | 1004.2 hPa | 0 mm | - | 499 W/m² | - |
| 1777847590 | 19.44° C | 27% | 1004.2 hPa | 0 mm | - | 162 W/m² | - |
| 1777847290 | 19.44° C | 26% | 1004.2 hPa | 0 mm | - | 369 W/m² | - |
| 1777846990 | 19.44° C | 27% | 1004.2 hPa | 0 mm | - | 496 W/m² | - |
| 1777846690 | 19.44° C | 29% | 1004.3 hPa | 0 mm | - | 501 W/m² | - |
| 1777846390 | 19.44° C | 27% | 1004.3 hPa | 0 mm | - | 520 W/m² | - |
| 1777846090 | 19.44° C | 26% | 1004.3 hPa | 0 mm | - | 527 W/m² | - |
| 1777845790 | 19.44° C | 28% | 1004.3 hPa | 0 mm | - | 540 W/m² | - |
| 1777845490 | 18.89° C | 28% | 1004.5 hPa | 0 mm | - | 541 W/m² | - |
| 1777845190 | 18.89° C | 27% | 1004.6 hPa | 0 mm | - | 564 W/m² | - |
| 1777844890 | 18.89° C | 28% | 1004.7 hPa | 0 mm | - | 578 W/m² | - |
| 1777844590 | 18.89° C | 27% | 1004.8 hPa | 0 mm | - | 591 W/m² | - |
| 1777844290 | 18.89° C | 27% | 1004.8 hPa | 0 mm | - | 605 W/m² | - |
| 1777843990 | 18.89° C | 29% | 1004.8 hPa | 0 mm | - | 617 W/m² | - |
| 1777843690 | 18.89° C | 28% | 1004.9 hPa | 0 mm | - | 631 W/m² | - |
| 1777843390 | 18.89° C | 27% | 1005 hPa | 0 mm | - | 645 W/m² | - |
| 1777843090 | 18.89° C | 27% | 1005 hPa | 0 mm | - | 656 W/m² | - |
| 1777842790 | 18.89° C | 27% | 1005 hPa | 0 mm | - | 670 W/m² | - |
| 1777842490 | 18.89° C | 27% | 1005.2 hPa | 0 mm | - | 645 W/m² | - |
| 1777842190 | 18.89° C | 29% | 1005.1 hPa | 0 mm | - | 670 W/m² | - |
| 1777841890 | 18.89° C | 29% | 1005.3 hPa | 0 mm | - | 619 W/m² | - |
| 1777841590 | 18.89° C | 28% | 1005.1 hPa | 0 mm | - | 691 W/m² | - |
| 1777841290 | 18.89° C | 29% | 1005.2 hPa | 0 mm | - | 691 W/m² | - |
| 1777840990 | 18.89° C | 28% | 1005.4 hPa | 0 mm | - | 728 W/m² | - |
| 1777840690 | 18.89° C | 29% | 1005.5 hPa | 0 mm | - | 694 W/m² | - |
* Rain latest hour (hover to see other rain measurements)
** Current wind speed in m/s (hover to see current wind gust speed)